Regional Weather Roundup
Issued by NWS

Home | Current Version | Previous Version | Graphics & Text | Print | Product List | Glossary On
Versions: 1 2 3 4 5 6 7 8 9 10 11 12 13 14 15 16 17 18 19 20 21 22 23 24 25 26 27 28 29 30 31 32 33 34 35 36 37 38 39 40 41 42 43 44 45 46 47 48 49 50
018
ASUS43 KMPX 251110
RWRMN
WEATHER ROUNDUP FOR MINNESOTA
NATIONAL WEATHER SERVICE TWIN CITIES/CHANHASSEN MN
600 AM CDT MON JUL 25 2016


NOTE: "FAIR" INDICATES FEW OR NO CLOUDS BELOW 12,000 FEET WITH NO
SIGNIFICANT WEATHER AND/OR OBSTRUCTIONS TO VISIBILITY. N/A MEANS
CURRENT SKY AND/OR WEATHER CONDITIONS ARE NOT AVAILABLE.

MNZ060>063-068>070-251200-
   Twin Cities Metro

CITY           SKY/WX    TMP DP  RH WIND       PRES   REMARKS
TWIN CITIES    CLEAR     67  60  78 CALM      30.02R
ST PAUL        CLEAR     67  61  81 W3        30.02R
CRYSTAL        CLEAR     64  58  80 W3        30.01R
BLAINE         CLEAR     64  63  94 CALM      30.02R
LAKEVILLE      CLEAR     61  61 100 CALM      30.03R
EDEN PRAIRIE   CLEAR     64  61  90 SW5       30.01R
LAKEVILLE      CLEAR     61  61 100 CALM      30.03R
SOUTH ST PAUL  CLEAR     66  61  84 CALM      30.02R
LAKE ELMO      FAIR      61  59  94 CALM      30.02S
$$
MNZ001>005-007-008-013>017-022>024-027-028-251200-
   Northwest Minnesota

CITY           SKY/WX    TMP DP  RH WIND       PRES   REMARKS
BEMIDJI        CLEAR     59  57  94 W5        30.02R
HALLOCK        CLEAR     57  55  94 CALM      29.98R
ROSEAU         CLEAR     61  55  82 SW3       29.98R
WARROAD        CLOUDY    61  55  82 W1        29.98R
THIEF RVR FALL CLEAR     59  58  96 CALM      30.01S FOG
CROOKSTON      CLEAR     61  57  88 CALM      30.01R
FOSSTON        CLEAR     54  54 100 S7        30.03R
DETROIT LAKES  CLEAR     63  57  82 CALM      30.05R
MOORHEAD       PTCLDY    61  57  88 CALM      30.03R
PARK RAPIDS    CLEAR     58  56  93 W3        30.03R
MAHNOMEN       FAIR      57  56  95 S3        30.03R
$$
MNZ006-009>011-018-025>026-251200-
   North Central Minnesota

CITY           SKY/WX    TMP DP  RH WIND       PRES   REMARKS
BAUDETTE       CLEAR     56  56 100 CALM      29.97R FOG
FLAG ISLAND    CLEAR     63  59  88 W12       29.95R
INTL FALLS     CLEAR     57  56  96 SW3       29.97R
WASKISH        CLEAR     66  63  88 NW7       29.99R
BIG FORK       FOG       55  54  94 CALM      30.00R VSB 1/2
LONGVILLE      CLEAR     57  57 100 CALM      30.01R
GRAND RAPIDS   CLEAR     60  59  96 W3        30.02R
ORR            CLEAR     57  54  88 CALM      29.95S
COOK           CLEAR     57  55  94 CALM      29.98S
WALKER         FAIR      58  56  94 W3        30.01S
$$
MNZ012-019>021-037-251200-
   Northeast Minnesota

CITY           SKY/WX    TMP DP  RH WIND       PRES   REMARKS
DULUTH         CLEAR     61  60  97 NW8       29.98R
ELY            CLEAR     57  55  94 CALM      29.96R
HIBBING        FOG       52  52 100 CALM      29.98R VSB<1/4
EVELETH        CLEAR     60  58  92 W3        29.99R
DULUTH HARBOR  CLEAR     66  63  88 SW6       29.97R
TWO HARBORS    CLEAR     64  61  88 CALM      29.94R
SILVER BAY     CLEAR     61  57  88 CALM      29.93R
GRAND MARAIS     N/A     67  58  72 MISG      29.86R
G MARAIS ARPRT CLEAR     61  54  77 W12G22    29.92R
$$
MNZ029>031-032-039>041-046>048-054>057-064-251200-
   West Central Minnesota

CITY           SKY/WX    TMP DP  RH WIND       PRES   REMARKS
FERGUS FALLS   CLEAR     61  61 100 CALM      30.05S
WHEATON        CLEAR     64  61  88 CALM      30.06R
MORRIS         CLEAR     61  59  94 NW3       30.04S
ALEXANDRIA     CLEAR     62  58  86 CALM      30.06R
ELBOW LAKE     FAIR      59  58  96 W3        30.04S
WADENA         CLEAR     59  57  94 W3        30.03S
GLENWOOD       CLEAR     61  57  88 W5        30.05R
APPLETON       CLEAR     61  57  88 CALM      30.04R FOG
BENSON         FOG       57  55  94 CALM      30.05R VSB 1
ORTONVILLE     CLEAR     63  57  82 CALM      30.04R
MADISON        CLEAR     61  57  88 SW8       30.05R
WILLMAR        FAIR      61  59  94 CALM      30.06R
$$
MNZ033>034-036-042>043-049>051-058-059-251200-
   Central Minnesota

CITY           SKY/WX    TMP DP  RH WIND       PRES   REMARKS
ST CLOUD       CLEAR     59  59 100 CALM      30.02R
SAUK CENTRE    FAIR      59  57  93 CALM      30.04S
PAYNESVILLE    CLEAR     56  56 100 W5        30.05R
AITKIN         CLEAR     63  57  82 W3        30.00R
PINE RIVER     CLEAR     59  59 100 CALM      30.05R
BRAINERD       CLEAR     61  59  93 CALM      30.02R
STAPLES        CLEAR     57  55  94 W3        30.02S
LONG PRAIRIE   FAIR      57  55  94 CALM      30.05R
LITTLE FALLS   CLEAR     57  55  94 CALM      30.03R
LITCHFIELD     CLEAR     64  63  94 CALM      30.04S
BUFFALO        CLEAR     63  59  87 CALM      30.04R
MAPLE LAKE     CLEAR     63  61  91 CALM      30.04R
HUTCHINSON     CLEAR     62  60  95 W3        30.05R
$$
MNZ037-044-045-052-053-251200-
   East Central Minnesota

CITY           SKY/WX    TMP DP  RH WIND       PRES   REMARKS
PRINCETON      CLEAR     57  55  94 CALM      30.02R
MORA           CLEAR     61  55  82 NW3       30.02S
CAMBRIDGE      CLEAR     64  55  72 CALM      30.00R
RUSH CITY      MOCLDY    61  58  90 W5        30.01R
MOOSE LAKE     CLEAR     61  59  94 W3        29.98S
HINCKLEY       FAIR      59  59 100 CALM      30.00R
CLOQUET        CLEAR     61  57  88 W7        29.99R
MCGREGOR       CLEAR     61  59  94 CALM      30.01R
$$
MNZ071>073-080-081-089-090-097-098-251200-
   Southwest Minnesota

CITY           SKY/WX    TMP DP  RH WIND       PRES   REMARKS
MONTEVIDEO     CLEAR     63  57  82 NW5       30.06R
GRANITE FALLS  CLEAR     60  59  97 SW3       30.07R
CANBY          CLEAR     64  59  83 NW3       30.07R
MARSHALL       CLEAR     62  58  86 SW6       30.07R
REDWOOD FALLS  CLEAR     63  58  83 W3        30.05R
OLIVIA         CLEAR     59  55  88 W3        30.04R
PIPESTONE      CLEAR     63  57  82 CALM      30.09S
WINDOM         CLEAR     61  59  94 CALM      30.09R
WORTHINGTON    CLEAR     59  58  96 SW6       30.10R
JACKSON        CLEAR     61  57  88 CALM      30.09R
TRACY          CLEAR     67  60  77 W6        30.08R
SLAYTON        CLEAR     60  58  94 W6        30.10R
$$
MNZ065>067-074>077-082>085-091>093-251200-
   South Central Minnesota

CITY           SKY/WX    TMP DP  RH WIND       PRES   REMARKS
MANKATO        CLEAR     64  59  82 W3        30.05R
NEW ULM        CLEAR     61  59  94 W5        30.05R
ST JAMES       CLEAR     57  55  94 CALM      30.07R
FAIRMONT       CLEAR     61  54  77 CALM      30.06R
GLENCOE        CLEAR     62  60  95 CALM      30.03R
FARIBAULT      CLEAR     63  61  94 CALM      30.05R
OWATONNA       CLEAR     61  59  94 CALM      30.05R
WASECA         FOG       59  59 100 SW3       30.06R VSB 1/4
ALBERT LEA     CLEAR     63  63 100 CALM      30.06R
$$
MNZ078>079-086>088-094>096-251200-
   Southeast Minnesota

CITY           SKY/WX    TMP DP  RH WIND       PRES   REMARKS
ROCHESTER      CLEAR     62  61  96 W7        30.06R
RED WING       CLEAR     63  61  94 CALM      30.01R
STANTON        CLEAR     61  59  94 CALM      30.02R
DODGE CENTER   PTCLDY    59  57  94 SW5       30.06R
WINONA         CLEAR     63  61  94 NW3       30.02R
AUSTIN         CLEAR     61  57  88 CALM      30.06R
PRESTON        CLEAR     62  59  91 W6        30.06R
$$
ABBREVIATIONS USED IN REMARKS
   TC - TEMPERATURES IN CELSIUS
  WCI - WIND CHILL INDEX
   HX - HEAT INDEX
  VSB - VISIBILITY
$$




USA.gov is the U.S. government's official web portal to all federal, state and local government web resources and services.